Temperature
18 18 18 19 18 18 18 18 18 18 18 19 18 18 18 18 18 18 18 18 18 18 18 18 18 18 18 18 18 18 18 18 18 18 18 18 17 17 18 18 18 18 17
19 19 19 19 19 18 18 18 18 18 18 18 18 18 18 18 18 18 18 18 18 18 18 18 18 18 18 18 18 18 18 18 18 18 18 18 18 17 18 18 18 17 17
19 19 19 19 19 19 18 18 18 18 18 18 18 18 18 18 18 18 18 18 18 18 18 18 18 18 18 18 18 18 18 18 18 18 18 18 17 17 17 17 17 17 17
19 19 19 19 19 19 18 18 18 18 18 18 18 18 18 18 18 18 18 18 18 18 18 18 18 18 18 18 18 18 18 18 18 18 18 18 18 17 17 17 17 17 17
19 19 19 19 19 19 19 18 19 19 18 18 18 18 18 18 18 18 18 18 18 18 18 18 18 18 18 18 18 18 18 18 18 18 18 18 18 17 17 17 17 17 17
19 19 19 19 19 19 19 19 19 19 19 18 18 18 18 18 18 18 18 18 18 18 18 18 18 18 18 18 18 17 17 17 17 17 17 17 18 18 17 17 17 17 17
20 19 19 19 19 19 19 19 19 19 18 18 18 18 18 18 18 18 18 18 18 18 18 18 18 18 18 18 18 17 17 17 17 17 18 17 18 18 18 17 17 17 17
20 19 19 19 19 19 19 19 19 19 19 18 18 18 18 18 18 18 18 18 18 18 18 18 18 18 18 18 18 17 17 17 17 18 18 18 18 18 18 18 18 17 17
20 19 19 19 19 19 19 19 19 19 19 18 18 18 18 18 18 18 18 18 18 18 18 18 18 18 18 18 18 18 17 17 18 18 18 18 18 18 18 18 18 17 17
19 19 19 19 19 19 19 19 19 19 18 18 18 18 18 18 18 18 18 18 18 18 18 18 18 18 18 18 18 18 18 17 18 18 18 18 18 18 18 18 17 17 17
19 19 19 19 19 19 19 19 19 18 18 18 18 18 18 18 18 18 18 18 18 18 18 18 18 18 18 18 18 18 18 18 18 18 18 18 18 18 18 18 18 17 17
20 19 19 19 19 19 19 19 19 19 18 18 18 18 18 18 18 18 18 18 18 18 18 18 18 18 18 18 18 18 18 18 18 18 18 18 18 18 18 18 18 17 17
20 20 19 19 19 19 19 19 19 19 18 18 18 18 18 18 18 18 18 18 18 18 18 18 18 18 18 18 18 18 18 18 18 18 18 18 18 18 18 18 18 17 17
20 20 20 19 19 19 19 19 19 19 18 18 18 18 18 18 18 18 18 18 18 18 18 18 18 18 18 18 18 18 18 18 18 18 18 18 18 18 18 18 18 17 17
20 20 20 19 19 19 19 19 19 18 18 18 18 18 18 18 18 18 18 18 18 18 18 18 18 18 18 18 18 18 18 18 18 18 18 18 18 18 18 18 17 17 17
20 20 20 20 19 19 19 19 19 19 18 18 18 18 18 18 18 18 18 18 18 18 18 18 18 18 18 18 18 18 18 18 18 18 18 18 18 18 17 17 17 17 17
21 20 20 20 20 19 19 19 19 19 18 18 18 18 18 18 18 18 18 18 18 18 18 18 18 18 18 18 18 18 18 18 18 18 18 18 18 17 17 17 17 17 17
21 20 20 20 20 19 19 19 19 19 19 18 18 18 18 18 18 18 18 18 18 18 18 18 18 18 18 18 18 18 18 18 18 18 18 18 18 17 17 17 17 17 17
21 21 20 20 20 19 19 19 19 19 19 18 18 18 18 18 18 18 18 18 18 18 18 18 18 18 18 18 18 18 18 18 18 17 17 17 17 17 17 17 17 17 17
21 21 20 20 20 19 19 19 19 19 19 18 19 19 18 18 18 18 18 18 18 18 18 18 18 18 18 18 18 18 17 18 17 17 17 17 17 17 17 17 17 17 17
21 21 20 20 20 20 19 19 19 19 19 18 18 19 18 18 18 18 18 18 18 18 18 18 18 18 18 18 18 17 17 17 17 17 17 17 17 17 17 16 16 16 16
22 21 21 20 20 20 20 19 19 19 19 18 18 18 18 18 18 18 18 18 18 18 18 18 18 18 18 18 18 17 17 17 17 17 17 16 16 16 16 16 16 16 16
22 22 21 21 20 20 20 19 19 19 19 18 18 18 18 18 18 18 18 18 18 18 18 18 18 18 18 17 17 17 17 17 16 16 16 16 16 16 16 16 16 16 16
22 22 21 21 21 20 20 20 19 19 19 19 19 18 18 18 18 18 18 18 18 18 18 18 18 18 18 18 17 17 17 17 17 16 16 16 16 16 16 15 15 15 15
23 22 22 21 21 20 20 20 20 19 19 19 18 18 18 18 18 18 18 18 18 18 18 18 18 18 18 18 17 17 17 17 17 16 15 15 15 15 15 15 15 15 15
23 22 22 22 21 21 20 20 20 19 19 19 19 19 18 18 18 18 18 18 18 18 18 18 18 18 18 17 17 17 17 17 17 17 16 15 15 15 14 15 15 15 15
Wind_Speed
1 4 7 10 11 12 13 14 15 15 15 16 17 17 17 17 18 18 18 18 17 17 18 18 18 19 19 19 19 20 20 19 19 19 19 18 18 18 18 18 17 16 18
4 6 8 11 12 12 14 14 15 15 15 16 16 17 17 17 18 18 17 17 18 18 18 18 18 18 18 19 18 18 18 18 18 18 18 17 17 17 17 17 16 15 17
5 7 9 11 12 13 13 14 15 15 15 16 16 16 16 17 17 17 17 17 18 18 17 17 17 17 17 17 17 17 17 17 17 17 15 14 15 16 17 16 17 17 16
8 8 9 12 13 13 14 14 15 15 15 15 16 16 16 16 16 17 17 17 17 17 17 16 16 16 16 16 16 16 16 16 16 15 12 12 13 16 17 17 17 17 16
7 9 10 12 13 14 14 15 15 16 15 15 16 15 15 16 16 16 16 16 16 16 16 16 15 15 15 15 14 14 14 13 13 11 10 11 13 16 17 17 17 16 16
7 9 11 13 14 15 15 15 15 15 15 15 15 15 15 15 15 16 16 16 15 15 15 14 14 14 14 14 13 13 12 11 10 9 11 13 13 16 17 17 16 16 15
7 8 12 14 14 15 15 15 15 15 15 14 14 15 15 14 15 15 15 15 15 14 14 13 12 13 12 12 11 10 10 10 8 9 11 12 14 16 16 16 16 15 15
9 8 10 14 14 14 14 14 14 14 13 13 13 14 14 14 14 14 14 14 14 13 12 11 11 10 10 10 9 8 8 9 9 9 11 12 15 16 16 16 16 15 14
9 7 7 9 11 13 13 13 13 12 12 12 12 12 12 12 13 13 13 13 12 12 11 10 9 8 8 7 6 6 7 8 8 8 11 12 15 16 16 15 15 15 14
7 6 6 7 8 9 10 11 11 11 11 10 10 11 11 11 11 11 11 11 11 10 9 8 7 6 6 5 4 4 5 6 7 7 8 11 15 16 16 15 15 14 14
7 5 5 5 6 7 8 9 9 9 9 9 8 9 8 6 6 8 8 9 9 8 7 7 6 5 4 3 2 2 3 4 6 6 8 12 15 15 15 15 15 14 13
7 6 5 5 5 6 6 7 6 6 6 6 6 6 6 5 4 5 7 8 7 7 6 6 5 4 3 1 0 0 2 4 5 6 8 13 15 15 15 15 15 14 13
8 7 6 5 5 5 4 6 5 4 4 4 5 6 5 4 4 3 4 4 4 4 4 3 3 3 2 2 1 1 3 3 4 6 9 13 15 15 15 14 14 14 14
8 7 6 6 5 5 5 4 4 4 4 3 5 6 5 3 3 3 3 3 3 3 3 2 2 2 2 2 2 1 4 4 5 6 8 12 14 14 14 14 14 15 15
8 7 7 6 5 5 5 3 4 3 4 4 4 5 6 4 3 3 2 3 3 3 3 2 2 2 2 2 1 2 3 5 6 7 7 11 12 13 14 14 14 15 14
8 8 7 7 6 5 4 3 3 4 5 5 4 4 5 5 3 2 2 2 2 3 3 2 2 2 1 1 1 2 2 4 6 6 6 8 10 11 12 13 14 14 13
9 9 8 7 5 5 4 4 4 4 5 4 3 3 5 5 4 3 2 1 1 2 2 2 2 3 2 2 1 1 2 3 4 5 6 6 7 9 9 9 10 11 12
9 9 8 8 6 6 5 4 3 4 4 3 3 3 4 4 4 3 2 2 1 2 2 2 2 2 2 1 1 1 1 2 3 4 5 6 6 6 7 8 7 7 8
10 9 7 7 7 6 5 4 3 3 3 3 3 2 3 3 4 4 2 1 2 2 1 1 2 2 2 2 1 1 1 1 2 3 3 4 4 4 4 5 5 5 5
9 9 8 7 6 5 4 3 2 2 1 2 2 3 4 3 4 4 2 1 2 2 1 2 2 2 2 2 2 2 2 1 1 2 3 3 3 4 3 3 2 3 3
9 8 8 7 6 5 3 3 2 1 0 1 1 3 4 4 3 3 2 2 2 2 1 2 3 2 1 2 3 2 3 3 2 1 2 3 3 4 4 3 3 1 1
10 9 8 8 7 6 4 3 3 2 1 1 1 2 4 4 3 3 3 2 2 2 2 2 3 2 1 2 3 2 1 3 4 4 3 3 3 3 4 4 4 3 2
11 11 10 8 8 6 6 3 3 2 2 2 1 1 1 3 3 3 3 3 2 2 2 1 2 3 2 1 2 3 3 2 0 3 3 3 3 3 3 4 4 3 2
12 10 9 9 7 6 6 5 5 4 3 3 2 2 1 2 3 3 3 3 2 2 2 1 2 2 3 1 0 0 2 4 3 1 2 4 4 4 4 4 3 4 4
13 11 9 9 8 7 7 7 6 4 3 2 2 3 2 1 2 3 3 2 2 1 2 1 1 2 2 2 1 1 1 2 2 3 2 1 3 3 3 4 4 5 5
11 10 10 9 8 7 7 7 7 6 6 5 3 3 2 1 1 1 2 2 1 1 1 1 1 1 1 1 2 2 2 2 2 3 3 2 2 1 3 3 4 4 6
Wind_Direction
92 107 88 88 87 85 88 89 92 91 90 92 95 98 99 100 103 105 105 104 107 108 108 108 109 111 113 115 117 120 121 122 123 124 125 126 126 127 125 124 122 121 122
141 124 103 97 94 91 91 92 93 93 93 94 96 98 100 102 104 105 105 106 106 105 105 107 108 111 113 116 117 119 121 122 124 123 124 124 126 129 127 127 126 127 127
118 117 106 103 100 97 95 94 94 95 95 95 97 101 103 105 106 107 107 107 107 107 106 108 109 111 113 115 117 119 121 123 124 123 121 120 125 129 130 130 129 129 128
122 118 110 106 104 102 100 97 97 96 95 96 99 101 106 107 108 109 109 108 108 108 109 110 111 112 114 116 117 119 122 124 124 123 123 126 129 130 131 131 131 130 128
118 120 119 112 108 107 105 102 101 99 96 95 98 101 108 110 110 111 110 108 108 108 109 109 111 113 115 115 116 118 119 123 126 122 122 127 129 133 133 133 133 132 133
120 126 124 118 113 111 109 106 103 103 101 98 99 101 106 112 112 113 111 110 109 109 109 109 111 112 114 115 115 115 117 119 122 120 124 129 133 137 137 137 138 138 139
127 127 124 120 117 114 113 110 106 105 105 103 101 101 104 107 112 114 113 112 111 111 112 112 113 111 114 117 115 114 114 118 123 123 130 136 141 142 142 142 142 143 144
130 129 127 126 122 120 119 116 113 110 109 108 105 104 104 107 113 114 116 115 115 116 117 117 117 116 115 114 111 110 111 118 124 127 137 144 146 146 146 147 146 146 147
131 131 128 131 130 127 124 123 121 119 116 114 112 110 109 111 115 116 121 120 119 119 119 121 122 122 117 115 109 107 108 112 121 130 142 148 150 151 152 151 152 152 152
130 132 132 135 137 138 133 131 131 129 127 124 122 120 118 118 120 120 123 126 126 126 128 131 130 129 127 124 121 111 113 114 126 139 147 155 156 156 157 158 159 161 161
139 147 144 146 151 150 148 144 138 135 134 134 134 133 128 124 129 130 135 139 140 141 141 145 147 149 146 147 151 137 128 137 141 148 156 163 164 164 165 165 166 169 170
159 166 160 156 161 166 155 145 149 146 147 151 156 154 149 151 164 152 158 160 162 161 161 165 171 180 194 197 222 120 147 147 147 160 167 168 172 172 173 173 174 176 177
161 159 157 161 168 167 154 153 164 160 165 168 166 168 163 166 174 173 171 182 187 185 191 187 198 205 215 220 244 208 162 153 157 171 175 176 178 179 179 179 180 183 184
146 149 147 143 141 146 147 152 161 162 166 168 168 164 160 155 155 170 185 192 200 207 211 212 201 200 206 229 245 193 150 162 169 172 181 184 184 183 182 186 189 190 192
144 149 145 135 132 129 123 143 144 154 154 162 164 166 157 151 149 166 181 190 203 198 196 197 203 193 179 194 179 143 146 151 163 169 179 184 184 188 189 191 195 197 197
147 149 145 137 133 121 115 118 128 136 132 131 147 158 153 150 152 155 165 181 198 196 200 186 182 161 145 126 117 116 135 153 157 165 171 178 185 190 194 199 200 200 200
152 150 149 146 134 122 113 114 121 129 130 129 146 151 152 151 157 158 149 154 194 175 156 134 128 113 121 126 131 143 141 142 153 166 169 175 186 193 192 195 199 204 205
149 153 160 150 139 130 125 118 117 120 128 143 152 143 139 146 149 145 150 177 175 137 116 117 120 111 118 122 119 132 119 125 143 156 165 172 178 190 199 199 200 201 206
154 154 152 146 150 145 135 125 118 116 124 140 146 143 143 144 142 140 148 162 128 105 108 126 116 138 140 131 118 101 102 129 135 151 154 164 168 171 174 184 183 187 202
157 152 150 150 155 146 130 110 94 77 91 117 138 152 153 147 138 127 124 114 117 108 89 97 113 118 141 140 98 67 50 87 119 141 153 134 135 141 140 145 171 200 205
157 154 154 155 160 147 135 132 128 146 154 124 147 153 150 144 137 124 116 107 107 122 139 125 121 108 96 109 90 56 31 42 61 72 94 97 103 121 124 116 112 106 260
167 165 162 163 164 161 159 157 159 159 166 165 141 130 140 133 136 134 125 129 116 106 87 108 119 119 147 137 130 109 51 25 32 44 68 90 90 94 93 97 97 87 58
174 174 172 171 169 167 159 138 120 90 69 74 94 117 119 131 132 118 117 113 111 117 126 136 137 143 165 221 158 145 149 181 40 25 46 63 71 77 73 84 81 77 76
182 177 168 170 170 167 157 151 152 154 161 186 176 154 117 114 117 116 114 115 111 110 119 140 135 147 149 180 290 147 161 156 150 115 35 42 55 62 59 71 62 61 64
178 175 171 167 169 167 162 162 158 160 168 160 138 122 103 66 98 116 115 113 116 121 134 138 131 138 151 169 181 154 96 94 115 144 143 66 52 49 61 64 68 66 61
173 173 172 167 171 168 165 165 164 162 156 149 150 143 132 101 77 95 101 98 112 133 143 151 146 150 171 174 176 164 161 154 160 146 150 141 109 53 54 57 62 64 60
Height
1522 1520 1519 1517 1516 1515 1514 1513 1513 1512 1512 1511 1511 1511 1512 1512 1513 1514 1516 1517 1518 1519 1520 1521 1522 1523 1524 1526 1528 1529 1531 1533 1534 1536 1538 1540 1542 1543 1545 1546 1547 1549 1550
1522 1521 1520 1519 1518 1517 1516 1516 1515 1515 1514 1514 1514 1514 1514 1515 1516 1517 1518 1519 1521 1522 1523 1524 1525 1526 1527 1529 1530 1532 1533 1535 1537 1538 1540 1541 1543 1545 1546 1548 1549 1550 1551
1523 1523 1522 1521 1520 1519 1518 1518 1517 1517 1517 1516 1516 1516 1517 1518 1519 1520 1521 1522 1523 1524 1526 1527 1528 1529 1530 1531 1533 1534 1536 1537 1538 1540 1541 1543 1545 1547 1548 1549 1551 1552 1553
1525 1524 1523 1523 1522 1522 1521 1520 1519 1519 1519 1519 1519 1519 1520 1521 1522 1523 1524 1525 1526 1527 1528 1529 1530 1532 1533 1534 1536 1537 1538 1539 1540 1541 1542 1544 1546 1548 1549 1551 1552 1554 1555
1526 1525 1525 1524 1524 1524 1523 1523 1522 1522 1521 1521 1522 1522 1522 1523 1524 1526 1527 1527 1529 1530 1531 1532 1533 1534 1535 1537 1538 1539 1540 1542 1542 1543 1544 1545 1547 1549 1551 1553 1554 1555 1556
1527 1526 1526 1526 1526 1526 1526 1526 1525 1525 1524 1524 1524 1524 1524 1526 1527 1528 1529 1530 1531 1532 1534 1535 1536 1537 1538 1539 1541 1542 1543 1544 1545 1546 1546 1548 1549 1551 1553 1554 1555 1556 1558
1528 1528 1528 1528 1528 1528 1528 1528 1528 1528 1527 1527 1527 1527 1527 1529 1530 1530 1532 1533 1534 1535 1536 1537 1538 1539 1541 1542 1543 1544 1545 1546 1547 1548 1549 1550 1552 1553 1554 1555 1556 1557 1559
1530 1530 1530 1531 1531 1531 1531 1531 1531 1531 1530 1530 1531 1531 1531 1532 1533 1533 1534 1536 1537 1538 1539 1540 1541 1542 1543 1544 1546 1547 1548 1548 1549 1550 1551 1552 1554 1555 1556 1557 1558 1559 1560
1532 1532 1532 1533 1533 1533 1533 1534 1534 1534 1534 1534 1534 1534 1535 1535 1536 1536 1538 1539 1540 1541 1541 1542 1544 1544 1546 1547 1548 1549 1550 1551 1551 1552 1553 1554 1555 1556 1557 1558 1559 1560 1561
1535 1534 1535 1535 1535 1536 1536 1536 1536 1537 1537 1537 1537 1537 1538 1538 1539 1539 1540 1541 1542 1543 1544 1545 1546 1547 1548 1549 1550 1551 1552 1552 1553 1554 1554 1555 1556 1557 1558 1559 1560 1561 1561
1537 1537 1537 1537 1538 1538 1538 1539 1539 1539 1539 1539 1540 1540 1541 1541 1542 1542 1543 1544 1545 1546 1547 1547 1548 1549 1550 1551 1552 1552 1553 1554 1555 1555 1556 1557 1557 1558 1559 1560 1560 1561 1562
1538 1538 1539 1539 1539 1540 1540 1540 1541 1541 1541 1542 1542 1543 1543 1543 1544 1545 1545 1546 1547 1547 1548 1549 1550 1551 1552 1552 1553 1554 1554 1555 1555 1556 1557 1557 1558 1559 1559 1560 1560 1561 1562
1539 1539 1540 1540 1541 1541 1542 1542 1542 1543 1543 1544 1544 1545 1545 1545 1546 1546 1547 1548 1548 1549 1550 1551 1552 1552 1553 1554 1554 1554 1555 1555 1556 1556 1557 1558 1558 1559 1559 1560 1560 1561 1562
1540 1541 1541 1542 1542 1543 1543 1543 1544 1544 1545 1545 1546 1546 1546 1547 1547 1547 1548 1549 1550 1550 1551 1552 1552 1553 1553 1554 1554 1555 1555 1555 1556 1557 1557 1558 1558 1559 1559 1559 1560 1560 1561
1541 1542 1543 1543 1543 1544 1544 1545 1545 1546 1546 1547 1547 1547 1548 1548 1548 1548 1549 1550 1550 1551 1552 1552 1553 1553 1553 1554 1554 1555 1555 1555 1556 1556 1557 1558 1558 1558 1559 1559 1559 1560 1560
1541 1542 1543 1544 1545 1545 1546 1546 1546 1547 1547 1547 1548 1548 1548 1549 1549 1549 1549 1550 1550 1551 1552 1552 1553 1553 1553 1553 1554 1554 1555 1555 1556 1556 1556 1557 1557 1558 1558 1558 1558 1558 1559
1542 1543 1544 1545 1545 1546 1547 1547 1547 1547 1548 1548 1548 1548 1548 1549 1549 1549 1549 1550 1551 1551 1552 1552 1552 1552 1553 1553 1554 1554 1555 1555 1555 1555 1555 1556 1556 1557 1557 1557 1557 1557 1557
1542 1543 1544 1545 1546 1546 1547 1547 1548 1548 1548 1548 1548 1548 1548 1549 1549 1549 1549 1550 1550 1551 1551 1552 1552 1552 1552 1553 1553 1554 1554 1554 1554 1554 1555 1555 1555 1556 1556 1556 1556 1556 1555
1541 1542 1544 1545 1546 1546 1547 1548 1548 1548 1548 1548 1548 1548 1548 1548 1549 1549 1549 1550 1550 1550 1551 1551 1551 1552 1552 1552 1552 1553 1553 1553 1553 1553 1554 1554 1555 1555 1555 1555 1555 1554 1554
1541 1542 1543 1545 1546 1546 1547 1548 1548 1548 1548 1548 1548 1548 1548 1548 1549 1549 1549 1549 1550 1550 1550 1550 1551 1551 1551 1552 1551 1552 1552 1552 1553 1553 1553 1553 1553 1553 1553 1553 1553 1553 1552
1540 1542 1543 1544 1545 1546 1547 1547 1548 1548 1548 1548 1548 1548 1548 1549 1549 1549 1549 1549 1549 1549 1550 1550 1550 1551 1551 1551 1551 1551 1552 1552 1552 1552 1552 1553 1552 1552 1552 1552 1551 1551 1551
1539 1540 1542 1543 1544 1545 1546 1547 1547 1548 1548 1548 1548 1548 1548 1548 1549 1549 1549 1549 1549 1549 1549 1549 1549 1550 1550 1550 1550 1550 1551 1553 1552 1552 1552 1552 1552 1551 1551 1551 1550 1550 1549
1537 1539 1541 1542 1543 1545 1546 1546 1547 1547 1547 1548 1548 1548 1548 1549 1549 1549 1549 1549 1549 1548 1548 1548 1549 1549 1549 1549 1550 1550 1550 1550 1551 1552 1551 1551 1551 1550 1550 1550 1549 1548 1548
1535 1538 1539 1541 1542 1544 1545 1546 1546 1546 1547 1547 1548 1548 1548 1548 1549 1549 1549 1548 1548 1548 1548 1548 1548 1548 1548 1548 1548 1549 1549 1549 1549 1550 1551 1550 1550 1550 1550 1549 1549 1548 1547
1534 1536 1538 1540 1541 1543 1544 1545 1545 1546 1546 1547 1547 1548 1548 1548 1548 1548 1548 1548 1547 1547 1547 1547 1547 1547 1547 1547 1547 1547 1547 1547 1547 1548 1549 1550 1550 1549 1549 1549 1548 1547 1547
1533 1535 1537 1538 1540 1541 1543 1544 1544 1545 1546 1546 1547 1547 1548 1548 1548 1548 1548 1547 1547 1546 1546 1546 1546 1546 1545 1545 1545 1545 1545 1545 1545 1546 1546 1547 1548 1549 1549 1549 1548 1547 1547